Chamberlain, SD

5:46 PM CST on December 04, 2016 (GMT -0600)
Chamberlain

Weather History for K9V9 - January, 2013

Change the Weather History Date:

Thursday, January 17, 2013

  Actual Average Record
Temperature  
Mean Temperature 31 °F -  
Max Temperature 41 °F 27 °F 44 °F (1999)
Min Temperature 21 °F 8 °F -16 °F (1997)
Degree Days  
Heating Degree Days 34    
Moisture  
Dew Point 26 °F    
Average Humidity 83    
Maximum Humidity 92    
Minimum Humidity 67    
Precipitation  
Precipitation 0.00 in - - ()
Sea Level Pressure  
Sea Level Pressure 30.32 in    
Wind  
Wind Speed 6 mph (South)    
Max Wind Speed 13 mph    
Max Gust Speed -    
Averages and records for this station are not official NWS values.
T = Trace of Precipitation, MM = Missing Value Source: NWS Daily Summary

Daily Weather History Graph

Daily Weather History Graph

Search for Another Location

Airport or City:

Trip Planner

Search our weather history database for the weather conditions in past years. The results will help you decide how hot, cold, wet, or windy it might be!

Date:

Astronomy

Jan. 17, 2013 Rise Set
Actual Time 8:06 AM CST 5:28 PM CST
Civil Twilight 7:35 AM CST 6:00 PM CST
Nautical Twilight 6:59 AM CST 6:35 PM CST
Astronomical Twilight 6:25 AM CST 7:10 PM CST
Moon 11:00 AM CST (1/17) No Moon Set
Length of Visible Light 10h 25m
Length of Day
9h 21m
Waxing Crescent, 38% of the Moon is Illuminated
Jan 17
Waxing Crescent
Jan 18
First Quarter
Jan 26
Full
Feb 3
Last Quarter
Feb 10
New

Hourly Weather History & Observations

Time (CST) Temp. Windchill Dew Point Humidity Pressure Visibility Wind Dir Wind Speed Gust Speed Precip Events Conditions
12:52 AM 24.1 °F 16.0 °F 19.0 °F 81% 30.30 in - SE 6.9 mph - N/A   Unknown
1:52 AM 25.0 °F 17.1 °F 19.9 °F 81% 30.31 in - SSE 6.9 mph - N/A   Unknown
2:52 AM 21.9 °F 17.2 °F 19.0 °F 89% 30.33 in - SSW 3.5 mph - N/A   Unknown
3:52 AM 24.1 °F 19.7 °F 21.9 °F 91% 30.33 in - SW 3.5 mph - N/A   Unknown
4:52 AM 21.9 °F 15.7 °F 19.9 °F 92% 30.35 in - NW 4.6 mph - N/A   Unknown
5:52 AM 27.0 °F 20.5 °F 24.1 °F 89% 30.35 in - NW 5.8 mph - N/A   Unknown
6:52 AM 27.0 °F 18.0 °F 24.1 °F 89% 30.38 in - NNW 9.2 mph - N/A   Unknown
7:52 AM 27.0 °F - 24.1 °F 89% 30.38 in - Calm Calm - N/A   Unknown
8:52 AM 28.9 °F - 25.0 °F 85% 30.42 in - Calm Calm - N/A   Unknown
9:52 AM 28.9 °F 23.9 °F 26.1 °F 89% 30.44 in - SW 4.6 mph - N/A   Unknown
10:52 AM 32.0 °F 27.5 °F 28.0 °F 85% 30.44 in - West 4.6 mph - N/A   Unknown
11:52 AM 37.0 °F 32.4 °F 28.9 °F 73% 30.42 in - West 5.8 mph - N/A   Unknown
12:52 PM 39.0 °F 33.4 °F 30.9 °F 73% 30.38 in - West 8.1 mph - N/A   Unknown
1:52 PM 41.0 °F 36.4 °F 30.9 °F 67% 30.35 in - NNW 6.9 mph - N/A   Unknown
2:52 PM 37.9 °F 31.5 °F 30.9 °F 76% 30.33 in - East 9.2 mph - N/A   Unknown
3:52 PM 37.0 °F 31.0 °F 30.0 °F 76% 30.32 in - East 8.1 mph - N/A   Unknown
4:52 PM 35.1 °F 29.3 °F 28.9 °F 78% 30.32 in - ESE 6.9 mph - N/A   Unknown
5:52 PM 33.1 °F 25.5 °F 28.0 °F 82% 30.31 in - ESE 9.2 mph - N/A   Unknown
6:52 PM 32.0 °F 24.8 °F 28.0 °F 85% 30.27 in - SE 8.1 mph - N/A   Unknown
7:52 PM 32.0 °F 22.5 °F 28.0 °F 85% 30.25 in - SE 12.7 mph - N/A   Unknown
8:52 PM 30.9 °F 22.2 °F 27.0 °F 85% 30.23 in - SSE 10.4 mph - N/A   Unknown
9:52 PM 28.9 °F 21.1 °F 26.1 °F 89% 30.18 in - SSE 8.1 mph - N/A   Unknown
10:52 PM 28.0 °F 20.0 °F 25.0 °F 88% 30.13 in - South 8.1 mph - N/A   Unknown
11:52 PM 28.9 °F 19.8 °F 24.1 °F 82% 30.09 in - South 10.4 mph - N/A   Unknown